contact:dominique.lefevre@mio.osupytheas.fr, maurice.libes@osupytheas.fr, didier.mallarino@osupytheas.fr
Project:EMSO http://www.emso-fr.org/EMSO-France
Depth: 2436.0 m
Title:EMSO Ligure Ouest : Data MII capteur MICROCAT
DateTime_Computer,Latitude,Longitude,Temperature,Conductivity,Pressure,DateTime_Instrument
DateTime_Computer,Latitude,Longitude,degC,S m-1,dbar,DateTime_Instrument
2019-07-22T00:02:02Z,42.805,6.029,13.2953,4.59956,2470.04,2019-7-22T02:02:21Z
2019-07-22T00:05:06Z,42.805,6.029,13.2953,4.59954,2470.017,2019-7-22T02:05:24Z
2019-07-22T00:08:09Z,42.805,6.029,13.2950,4.59954,2470.03,2019-7-22T02:08:28Z
2019-07-22T00:11:12Z,42.805,6.029,13.2957,4.59956,2470.017,2019-7-22T02:11:31Z
2019-07-22T00:14:15Z,42.805,6.029,13.2951,4.59958,2470.053,2019-7-22T02:14:34Z
2019-07-22T00:17:18Z,42.805,6.029,13.2952,4.59958,2470.03,2019-7-22T02:17:37Z
2019-07-22T00:20:21Z,42.805,6.029,13.2956,4.59956,2470.007,2019-7-22T02:20:40Z
2019-07-22T00:23:25Z,42.805,6.029,13.2958,4.59956,2470.007,2019-7-22T02:23:44Z
2019-07-22T00:26:28Z,42.805,6.029,13.2958,4.59954,2470.03,2019-7-22T02:26:47Z
2019-07-22T00:29:31Z,42.805,6.029,13.2953,4.59956,2470.04,2019-7-22T02:29:50Z
2019-07-22T00:32:34Z,42.805,6.029,13.2952,4.59955,2469.97,2019-7-22T02:32:53Z
2019-07-22T00:35:37Z,42.805,6.029,13.2953,4.59954,2470.03,2019-7-22T02:35:56Z
2019-07-22T00:38:41Z,42.805,6.029,13.2953,4.59955,2470.017,2019-7-22T02:38:59Z
2019-07-22T00:41:44Z,42.805,6.029,13.2955,4.59957,2470.03,2019-7-22T02:42:03Z
2019-07-22T00:44:47Z,42.805,6.029,13.2953,4.59955,2469.984,2019-7-22T02:45:06Z
2019-07-22T00:47:50Z,42.805,6.029,13.2956,4.59955,2469.97,2019-7-22T02:48:09Z
2019-07-22T00:50:53Z,42.805,6.029,13.2952,4.59958,2469.984,2019-7-22T02:51:12Z
2019-07-22T00:53:57Z,42.805,6.029,13.2955,4.59958,2469.96,2019-7-22T02:54:16Z
2019-07-22T00:57:00Z,42.805,6.029,13.2953,4.59956,2469.97,2019-7-22T02:57:19Z
2019-07-22T01:00:03Z,42.805,6.029,13.2953,4.59957,2469.97,2019-7-22T03:00:22Z
2019-07-22T01:03:06Z,42.805,6.029,13.2953,4.59956,2469.993,2019-7-22T03:03:25Z
2019-07-22T01:06:09Z,42.805,6.029,13.2956,4.59956,2470.017,2019-7-22T03:06:28Z
2019-07-22T01:09:13Z,42.805,6.029,13.2953,4.59956,2469.984,2019-7-22T03:09:31Z
2019-07-22T01:12:16Z,42.805,6.029,13.2953,4.59956,2470.007,2019-7-22T03:12:35Z
2019-07-22T01:15:19Z,42.805,6.029,13.2953,4.59957,2470.017,2019-7-22T03:15:38Z
2019-07-22T01:18:22Z,42.805,6.029,13.2952,4.59956,2470.007,2019-7-22T03:18:41Z
2019-07-22T01:21:25Z,42.805,6.029,13.2954,4.59958,2469.979,2019-7-22T03:21:44Z
2019-07-22T01:24:29Z,42.805,6.029,13.2950,4.59955,2469.97,2019-7-22T03:24:47Z
2019-07-22T01:27:32Z,42.805,6.029,13.2957,4.59964,2469.97,2019-7-22T03:27:51Z
2019-07-22T01:30:35Z,42.805,6.029,13.2950,4.59956,2469.947,2019-7-22T03:30:54Z
2019-07-22T01:33:38Z,42.805,6.029,13.2955,4.59954,2469.97,2019-7-22T03:33:57Z
2019-07-22T01:36:42Z,42.805,6.029,13.2951,4.59955,2469.993,2019-7-22T03:37:01Z
2019-07-22T01:39:45Z,42.805,6.029,13.2954,4.59955,2469.993,2019-7-22T03:40:04Z
2019-07-22T01:42:48Z,42.805,6.029,13.2954,4.59955,2469.984,2019-7-22T03:43:07Z
2019-07-22T01:45:51Z,42.805,6.029,13.2957,4.59954,2469.947,2019-7-22T03:46:10Z
2019-07-22T01:48:55Z,42.805,6.029,13.2953,4.59957,2469.947,2019-7-22T03:49:13Z
2019-07-22T01:51:58Z,42.805,6.029,13.2954,4.59957,2469.97,2019-7-22T03:52:17Z
2019-07-22T01:55:01Z,42.805,6.029,13.2956,4.59957,2470.007,2019-7-22T03:55:20Z
2019-07-22T01:58:05Z,42.805,6.029,13.2952,4.59958,2469.947,2019-7-22T03:58:23Z
2019-07-22T02:01:08Z,42.805,6.029,13.2957,4.59955,2469.97,2019-7-22T04:01:27Z
2019-07-22T02:04:11Z,42.805,6.029,13.2950,4.59956,2469.923,2019-7-22T04:04:30Z
2019-07-22T02:07:14Z,42.805,6.029,13.2951,4.59956,2469.97,2019-7-22T04:07:33Z
2019-07-22T02:10:17Z,42.805,6.029,13.2954,4.59958,2469.947,2019-7-22T04:10:36Z
2019-07-22T02:13:20Z,42.805,6.029,13.2953,4.59961,2469.96,2019-7-22T04:13:39Z
2019-07-22T02:16:24Z,42.805,6.029,13.2953,4.59957,2469.923,2019-7-22T04:16:42Z
2019-07-22T02:19:27Z,42.805,6.029,13.2953,4.59955,2469.923,2019-7-22T04:19:46Z
2019-07-22T02:22:30Z,42.805,6.029,13.2952,4.59956,2469.9,2019-7-22T04:22:49Z
2019-07-22T02:25:33Z,42.805,6.029,13.2953,4.59958,2469.96,2019-7-22T04:25:52Z
2019-07-22T02:28:36Z,42.805,6.029,13.2954,4.59960,2469.947,2019-7-22T04:28:55Z
2019-07-22T02:31:40Z,42.805,6.029,13.2955,4.59958,2469.97,2019-7-22T04:31:58Z
2019-07-22T02:34:43Z,42.805,6.029,13.2953,4.59958,2469.947,2019-7-22T04:35:02Z
2019-07-22T02:37:46Z,42.805,6.029,13.2953,4.59957,2469.914,2019-7-22T04:38:05Z
2019-07-22T02:40:49Z,42.805,6.029,13.2952,4.59957,2469.9,2019-7-22T04:41:08Z
2019-07-22T02:43:52Z,42.805,6.029,13.2957,4.59958,2469.96,2019-7-22T04:44:11Z
2019-07-22T02:46:56Z,42.805,6.029,13.2952,4.59958,2469.9,2019-7-22T04:47:14Z
2019-07-22T02:49:59Z,42.805,6.029,13.2952,4.59958,2469.923,2019-7-22T04:50:18Z
2019-07-22T02:53:02Z,42.805,6.029,13.2952,4.59958,2469.9,2019-7-22T04:53:21Z
2019-07-22T02:56:05Z,42.805,6.029,13.2953,4.59963,2469.923,2019-7-22T04:56:24Z
2019-07-22T02:59:08Z,42.805,6.029,13.2953,4.59962,2469.9,2019-7-22T04:59:27Z
2019-07-22T03:02:12Z,42.805,6.029,13.2956,4.59969,2469.89,2019-7-22T05:02:31Z
2019-07-22T03:05:15Z,42.805,6.029,13.2959,4.59964,2469.914,2019-7-22T05:05:34Z
2019-07-22T03:08:18Z,42.805,6.029,13.2957,4.59964,2469.937,2019-7-22T05:08:37Z
2019-07-22T03:11:21Z,42.805,6.029,13.2955,4.59963,2469.89,2019-7-22T05:11:40Z
2019-07-22T03:14:25Z,42.805,6.029,13.2955,4.59958,2469.923,2019-7-22T05:14:44Z
2019-07-22T03:17:28Z,42.805,6.029,13.2954,4.59964,2469.923,2019-7-22T05:17:47Z
2019-07-22T03:20:31Z,42.805,6.029,13.2953,4.59963,2469.876,2019-7-22T05:20:50Z
2019-07-22T03:23:35Z,42.805,6.029,13.2957,4.59969,2469.89,2019-7-22T05:23:54Z
2019-07-22T03:26:38Z,42.805,6.029,13.2952,4.59971,2469.9,2019-7-22T05:26:57Z
2019-07-22T03:29:41Z,42.805,6.029,13.2966,4.59971,2469.9,2019-7-22T05:30:00Z
2019-07-22T03:32:45Z,42.805,6.029,13.2953,4.59966,2469.853,2019-7-22T05:33:03Z
2019-07-22T03:35:48Z,42.805,6.029,13.2953,4.59967,2469.89,2019-7-22T05:36:07Z
2019-07-22T03:38:51Z,42.805,6.029,13.2956,4.59966,2469.89,2019-7-22T05:39:10Z
2019-07-22T03:41:54Z,42.805,6.029,13.2955,4.59964,2469.89,2019-7-22T05:42:13Z
2019-07-22T03:44:58Z,42.805,6.029,13.2956,4.59965,2469.89,2019-7-22T05:45:16Z
2019-07-22T03:48:01Z,42.805,6.029,13.2954,4.59964,2469.89,2019-7-22T05:48:20Z
2019-07-22T03:51:04Z,42.805,6.029,13.2955,4.59964,2469.914,2019-7-22T05:51:23Z
2019-07-22T03:54:07Z,42.805,6.029,13.2957,4.59962,2469.923,2019-7-22T05:54:26Z
2019-07-22T03:57:11Z,42.805,6.029,13.2956,4.59970,2469.914,2019-7-22T05:57:30Z
2019-07-22T04:00:14Z,42.805,6.029,13.2958,4.59968,2469.9,2019-7-22T06:00:33Z
2019-07-22T04:03:17Z,42.805,6.029,13.2955,4.59975,2469.876,2019-7-22T06:03:36Z
2019-07-22T04:06:21Z,42.805,6.029,13.2958,4.59966,2469.89,2019-7-22T06:06:39Z
2019-07-22T04:09:24Z,42.805,6.029,13.2953,4.59966,2469.853,2019-7-22T06:09:43Z
2019-07-22T04:12:27Z,42.805,6.029,13.2955,4.59966,2469.9,2019-7-22T06:12:46Z
2019-07-22T04:15:30Z,42.805,6.029,13.2954,4.59967,2469.876,2019-7-22T06:15:49Z
2019-07-22T04:18:34Z,42.805,6.029,13.2957,4.59972,2469.876,2019-7-22T06:18:52Z
2019-07-22T04:21:37Z,42.805,6.029,13.2957,4.59983,2469.89,2019-7-22T06:21:56Z
2019-07-22T04:24:40Z,42.805,6.029,13.2956,4.59980,2469.89,2019-7-22T06:24:59Z
2019-07-22T04:27:44Z,42.805,6.029,13.2965,4.59974,2469.89,2019-7-22T06:28:02Z
2019-07-22T04:30:47Z,42.805,6.029,13.2964,4.59981,2469.89,2019-7-22T06:31:06Z
2019-07-22T04:33:50Z,42.805,6.029,13.2958,4.59985,2469.876,2019-7-22T06:34:09Z
2019-07-22T04:36:53Z,42.805,6.029,13.2957,4.59986,2469.89,2019-7-22T06:37:12Z
2019-07-22T04:39:57Z,42.805,6.029,13.2963,4.59994,2469.876,2019-7-22T06:40:16Z
2019-07-22T04:43:00Z,42.805,6.029,13.2951,4.59966,2469.83,2019-7-22T06:43:19Z
2019-07-22T04:46:03Z,42.805,6.029,13.2958,4.59971,2469.876,2019-7-22T06:46:22Z
2019-07-22T04:49:07Z,42.805,6.029,13.2953,4.59966,2469.89,2019-7-22T06:49:25Z
2019-07-22T04:52:10Z,42.805,6.029,13.2956,4.59971,2469.867,2019-7-22T06:52:29Z
2019-07-22T04:55:13Z,42.805,6.029,13.2953,4.59964,2469.89,2019-7-22T06:55:32Z
2019-07-22T04:58:16Z,42.805,6.029,13.2955,4.59964,2469.853,2019-7-22T06:58:35Z
2019-07-22T05:01:20Z,42.805,6.029,13.2957,4.59964,2469.867,2019-7-22T07:01:39Z
2019-07-22T05:04:23Z,42.805,6.029,13.2954,4.59963,2469.853,2019-7-22T07:04:42Z
2019-07-22T05:07:26Z,42.805,6.029,13.2953,4.59963,2469.867,2019-7-22T07:07:45Z
2019-07-22T05:10:29Z,42.805,6.029,13.2953,4.59960,2469.867,2019-7-22T07:10:48Z
2019-07-22T05:13:33Z,42.805,6.029,13.2951,4.59966,2469.876,2019-7-22T07:13:52Z
2019-07-22T05:16:36Z,42.805,6.029,13.2961,4.59973,2469.867,2019-7-22T07:16:55Z
2019-07-22T05:19:39Z,42.805,6.029,13.2955,4.59968,2469.844,2019-7-22T07:19:58Z
2019-07-22T05:22:43Z,42.805,6.029,13.2954,4.59968,2469.89,2019-7-22T07:23:01Z
2019-07-22T05:25:46Z,42.805,6.029,13.2955,4.59963,2469.914,2019-7-22T07:26:05Z
2019-07-22T05:28:49Z,42.805,6.029,13.2953,4.59964,2469.89,2019-7-22T07:29:08Z
2019-07-22T05:31:52Z,42.805,6.029,13.2956,4.59970,2469.914,2019-7-22T07:32:11Z
2019-07-22T05:34:56Z,42.805,6.029,13.2958,4.59963,2469.867,2019-7-22T07:35:14Z
2019-07-22T05:37:59Z,42.805,6.029,13.2954,4.59961,2469.89,2019-7-22T07:38:18Z
2019-07-22T05:41:02Z,42.805,6.029,13.2959,4.59964,2469.853,2019-7-22T07:41:21Z
2019-07-22T05:44:05Z,42.805,6.029,13.2954,4.59962,2469.914,2019-7-22T07:44:24Z
2019-07-22T05:47:09Z,42.805,6.029,13.2957,4.59958,2469.9,2019-7-22T07:47:28Z
2019-07-22T05:50:12Z,42.805,6.029,13.2955,4.59959,2469.853,2019-7-22T07:50:31Z
2019-07-22T05:53:15Z,42.805,6.029,13.2956,4.59968,2469.876,2019-7-22T07:53:34Z
2019-07-22T05:56:19Z,42.805,6.029,13.2964,4.59968,2469.867,2019-7-22T07:56:38Z
2019-07-22T05:59:22Z,42.805,6.029,13.2956,4.59968,2469.853,2019-7-22T07:59:41Z
2019-07-22T06:02:25Z,42.805,6.029,13.2958,4.59967,2469.867,2019-7-22T08:02:44Z
2019-07-22T06:05:29Z,42.805,6.029,13.2957,4.59978,2469.867,2019-7-22T08:05:47Z
2019-07-22T06:08:32Z,42.805,6.029,13.2953,4.59961,2469.867,2019-7-22T08:08:51Z
2019-07-22T06:11:35Z,42.805,6.029,13.2957,4.59964,2469.89,2019-7-22T08:11:54Z
2019-07-22T06:14:39Z,42.805,6.029,13.2955,4.59964,2469.914,2019-7-22T08:14:57Z
2019-07-22T06:17:42Z,42.805,6.029,13.2954,4.59962,2469.853,2019-7-22T08:18:01Z
2019-07-22T06:20:45Z,42.805,6.029,13.2954,4.59961,2469.876,2019-7-22T08:21:04Z
2019-07-22T06:23:48Z,42.805,6.029,13.2956,4.59962,2469.89,2019-7-22T08:24:07Z
2019-07-22T06:26:52Z,42.805,6.029,13.2955,4.59966,2469.9,2019-7-22T08:27:10Z
2019-07-22T06:29:55Z,42.805,6.029,13.2955,4.59960,2469.923,2019-7-22T08:30:14Z
2019-07-22T06:32:58Z,42.805,6.029,13.2957,4.59962,2469.923,2019-7-22T08:33:17Z
2019-07-22T06:36:01Z,42.805,6.029,13.2957,4.59964,2469.9,2019-7-22T08:36:20Z
2019-07-22T06:39:05Z,42.805,6.029,13.2956,4.59966,2469.9,2019-7-22T08:39:24Z
2019-07-22T06:42:08Z,42.805,6.029,13.2956,4.59964,2469.914,2019-7-22T08:42:27Z
2019-07-22T06:45:11Z,42.805,6.029,13.2957,4.59964,2469.914,2019-7-22T08:45:30Z
2019-07-22T06:48:14Z,42.805,6.029,13.2956,4.59961,2469.923,2019-7-22T08:48:33Z
2019-07-22T06:51:18Z,42.805,6.029,13.2956,4.59972,2469.876,2019-7-22T08:51:37Z
2019-07-22T06:54:21Z,42.805,6.029,13.2952,4.59977,2469.914,2019-7-22T08:54:40Z
2019-07-22T06:57:24Z,42.805,6.029,13.2957,4.59967,2469.876,2019-7-22T08:57:43Z
2019-07-22T07:00:28Z,42.805,6.029,13.2955,4.59971,2469.9,2019-7-22T09:00:46Z
2019-07-22T07:03:31Z,42.805,6.029,13.2955,4.59973,2469.914,2019-7-22T09:03:50Z
2019-07-22T07:06:34Z,42.805,6.029,13.2961,4.59970,2469.937,2019-7-22T09:06:53Z
2019-07-22T07:09:37Z,42.805,6.029,13.2957,4.59969,2469.876,2019-7-22T09:09:56Z
2019-07-22T07:12:41Z,42.805,6.029,13.2958,4.59978,2469.9,2019-7-22T09:12:59Z
2019-07-22T07:15:44Z,42.805,6.029,13.2959,4.59976,2469.876,2019-7-22T09:16:03Z
2019-07-22T07:18:47Z,42.805,6.029,13.2962,4.59973,2469.9,2019-7-22T09:19:06Z
2019-07-22T07:21:50Z,42.805,6.029,13.2954,4.59967,2469.923,2019-7-22T09:22:09Z
2019-07-22T07:24:54Z,42.805,6.029,13.2957,4.59971,2469.89,2019-7-22T09:25:13Z
2019-07-22T07:27:57Z,42.805,6.029,13.2957,4.59972,2469.9,2019-7-22T09:28:16Z
2019-07-22T07:31:00Z,42.805,6.029,13.2957,4.59971,2469.914,2019-7-22T09:31:19Z
2019-07-22T07:34:04Z,42.805,6.029,13.2953,4.59965,2469.914,2019-7-22T09:34:22Z
2019-07-22T07:37:07Z,42.805,6.029,13.2958,4.59968,2469.9,2019-7-22T09:37:26Z
2019-07-22T07:40:10Z,42.805,6.029,13.2957,4.59962,2469.89,2019-7-22T09:40:29Z
2019-07-22T07:43:13Z,42.805,6.029,13.2957,4.59963,2469.9,2019-7-22T09:43:32Z
2019-07-22T07:46:17Z,42.805,6.029,13.2957,4.59960,2469.853,2019-7-22T09:46:36Z
2019-07-22T07:49:20Z,42.805,6.029,13.2953,4.59959,2469.9,2019-7-22T09:49:39Z
2019-07-22T07:52:23Z,42.805,6.029,13.2954,4.59960,2469.923,2019-7-22T09:52:42Z
2019-07-22T07:55:27Z,42.805,6.029,13.2954,4.59958,2469.923,2019-7-22T09:55:45Z
2019-07-22T07:58:30Z,42.805,6.029,13.2953,4.59958,2469.923,2019-7-22T09:58:49Z
2019-07-22T08:01:33Z,42.805,6.029,13.2953,4.59956,2469.947,2019-7-22T10:01:52Z
2019-07-22T08:04:36Z,42.805,6.029,13.2952,4.59957,2469.9,2019-7-22T10:04:55Z
2019-07-22T08:07:40Z,42.805,6.029,13.2953,4.59961,2469.937,2019-7-22T10:07:59Z
2019-07-22T08:10:43Z,42.805,6.029,13.2956,4.59960,2469.914,2019-7-22T10:11:02Z
2019-07-22T08:13:46Z,42.805,6.029,13.2956,4.59961,2469.937,2019-7-22T10:14:05Z
2019-07-22T08:16:50Z,42.805,6.029,13.2956,4.59956,2469.937,2019-7-22T10:17:08Z
2019-07-22T08:19:53Z,42.805,6.029,13.2952,4.59958,2469.937,2019-7-22T10:20:12Z
2019-07-22T08:22:56Z,42.805,6.029,13.2953,4.59956,2469.947,2019-7-22T10:23:15Z
2019-07-22T08:25:59Z,42.805,6.029,13.2953,4.59961,2469.923,2019-7-22T10:26:18Z
2019-07-22T08:29:03Z,42.805,6.029,13.2955,4.59956,2469.937,2019-7-22T10:29:21Z
2019-07-22T08:32:06Z,42.805,6.029,13.2957,4.59957,2469.937,2019-7-22T10:32:25Z
2019-07-22T08:35:09Z,42.805,6.029,13.2957,4.59958,2469.947,2019-7-22T10:35:28Z
2019-07-22T08:38:13Z,42.805,6.029,13.2960,4.59961,2469.96,2019-7-22T10:38:31Z
2019-07-22T08:41:16Z,42.805,6.029,13.2953,4.59958,2469.947,2019-7-22T10:41:35Z
2019-07-22T08:44:19Z,42.805,6.029,13.2957,4.59957,2469.947,2019-7-22T10:44:38Z
2019-07-22T08:47:22Z,42.805,6.029,13.2957,4.59956,2469.97,2019-7-22T10:47:41Z
2019-07-22T08:50:26Z,42.805,6.029,13.2954,4.59957,2469.923,2019-7-22T10:50:44Z
2019-07-22T08:53:29Z,42.805,6.029,13.2952,4.59960,2469.947,2019-7-22T10:53:48Z
2019-07-22T08:56:32Z,42.805,6.029,13.2957,4.59955,2469.947,2019-7-22T10:56:51Z
2019-07-22T08:59:36Z,42.805,6.029,13.2953,4.59955,2469.947,2019-7-22T10:59:54Z
2019-07-22T09:02:39Z,42.805,6.029,13.2954,4.59956,2469.937,2019-7-22T11:02:58Z
2019-07-22T09:05:43Z,42.805,6.029,13.2958,4.59957,2469.97,2019-7-22T11:06:01Z
2019-07-22T09:08:46Z,42.805,6.029,13.2963,4.59955,2469.947,2019-7-22T11:09:05Z
2019-07-22T09:11:49Z,42.805,6.029,13.2953,4.59958,2469.923,2019-7-22T11:12:08Z
2019-07-22T09:14:52Z,42.805,6.029,13.2957,4.59955,2469.923,2019-7-22T11:15:11Z
2019-07-22T09:17:56Z,42.805,6.029,13.2955,4.59954,2469.947,2019-7-22T11:18:14Z
2019-07-22T09:20:59Z,42.805,6.029,13.2955,4.59956,2469.947,2019-7-22T11:21:18Z
2019-07-22T09:24:02Z,42.805,6.029,13.2954,4.59958,2469.947,2019-7-22T11:24:21Z
2019-07-22T09:27:05Z,42.805,6.029,13.2952,4.59959,2469.96,2019-7-22T11:27:24Z
2019-07-22T09:30:09Z,42.805,6.029,13.2953,4.59954,2469.984,2019-7-22T11:30:28Z
2019-07-22T09:33:12Z,42.805,6.029,13.2952,4.59958,2469.97,2019-7-22T11:33:31Z
2019-07-22T09:36:15Z,42.805,6.029,13.2952,4.59956,2469.947,2019-7-22T11:36:34Z
2019-07-22T09:39:18Z,42.805,6.029,13.2957,4.59954,2469.993,2019-7-22T11:39:37Z
2019-07-22T09:42:22Z,42.805,6.029,13.2955,4.59956,2469.96,2019-7-22T11:42:40Z
2019-07-22T09:45:25Z,42.805,6.029,13.2954,4.59954,2469.947,2019-7-22T11:45:44Z
2019-07-22T09:48:28Z,42.805,6.029,13.2953,4.59956,2469.923,2019-7-22T11:48:47Z
2019-07-22T09:51:31Z,42.805,6.029,13.2955,4.59955,2469.947,2019-7-22T11:51:50Z
2019-07-22T09:54:34Z,42.805,6.029,13.2953,4.59955,2469.947,2019-7-22T11:54:53Z
2019-07-22T09:57:38Z,42.805,6.029,13.2958,4.59954,2469.937,2019-7-22T11:57:56Z
2019-07-22T10:00:41Z,42.805,6.029,13.2957,4.59956,2469.993,2019-7-22T12:01:00Z
2019-07-22T10:03:44Z,42.805,6.029,13.2954,4.59946,2469.947,2019-7-22T12:04:03Z
2019-07-22T10:06:47Z,42.805,6.029,13.2953,4.59956,2469.937,2019-7-22T12:07:06Z
2019-07-22T10:09:50Z,42.805,6.029,13.2957,4.59956,2469.947,2019-7-22T12:10:09Z
2019-07-22T10:12:54Z,42.805,6.029,13.2952,4.59955,2469.937,2019-7-22T12:13:13Z
2019-07-22T10:15:57Z,42.805,6.029,13.2957,4.59955,2469.937,2019-7-22T12:16:16Z
2019-07-22T10:19:00Z,42.805,6.029,13.2955,4.59955,2469.984,2019-7-22T12:19:19Z
2019-07-22T10:22:03Z,42.805,6.029,13.2955,4.59954,2469.96,2019-7-22T12:22:22Z
2019-07-22T10:25:06Z,42.805,6.029,13.2953,4.59955,2469.96,2019-7-22T12:25:25Z
2019-07-22T10:28:10Z,42.805,6.029,13.2953,4.59955,2469.947,2019-7-22T12:28:29Z
2019-07-22T10:31:13Z,42.805,6.029,13.2952,4.59956,2469.984,2019-7-22T12:31:32Z
2019-07-22T10:34:16Z,42.805,6.029,13.2953,4.59955,2469.947,2019-7-22T12:34:35Z
2019-07-22T10:37:19Z,42.805,6.029,13.2954,4.59954,2469.937,2019-7-22T12:37:38Z
2019-07-22T10:40:23Z,42.805,6.029,13.2952,4.59955,2469.947,2019-7-22T12:40:42Z
2019-07-22T10:43:26Z,42.805,6.029,13.2953,4.59956,2469.984,2019-7-22T12:43:45Z
2019-07-22T10:46:29Z,42.805,6.029,13.2958,4.59956,2469.923,2019-7-22T12:46:48Z
2019-07-22T10:49:32Z,42.805,6.029,13.2957,4.59956,2469.947,2019-7-22T12:49:51Z
2019-07-22T10:52:35Z,42.805,6.029,13.2955,4.59955,2469.96,2019-7-22T12:52:54Z
2019-07-22T10:55:39Z,42.805,6.029,13.2957,4.59954,2469.937,2019-7-22T12:55:57Z
2019-07-22T10:58:42Z,42.805,6.029,13.2956,4.59956,2469.96,2019-7-22T12:59:01Z
2019-07-22T11:01:45Z,42.805,6.029,13.2955,4.59954,2469.97,2019-7-22T13:02:04Z
2019-07-22T11:04:48Z,42.805,6.029,13.2956,4.59957,2469.923,2019-7-22T13:05:07Z
2019-07-22T11:07:51Z,42.805,6.029,13.2954,4.59955,2469.9,2019-7-22T13:08:10Z
2019-07-22T11:10:55Z,42.805,6.029,13.2955,4.59955,2469.947,2019-7-22T13:11:13Z
2019-07-22T11:13:58Z,42.805,6.029,13.2957,4.59954,2469.923,2019-7-22T13:14:17Z
2019-07-22T11:17:01Z,42.805,6.029,13.2957,4.59956,2469.947,2019-7-22T13:17:20Z
2019-07-22T11:20:04Z,42.805,6.029,13.2953,4.59955,2469.947,2019-7-22T13:20:23Z
2019-07-22T11:23:07Z,42.805,6.029,13.2950,4.59955,2469.923,2019-7-22T13:23:26Z
2019-07-22T11:26:10Z,42.805,6.029,13.2954,4.59957,2469.9,2019-7-22T13:26:29Z
2019-07-22T11:29:14Z,42.805,6.029,13.2950,4.59956,2469.914,2019-7-22T13:29:33Z
2019-07-22T11:32:17Z,42.805,6.029,13.2955,4.59954,2469.923,2019-7-22T13:32:36Z
2019-07-22T11:35:20Z,42.805,6.029,13.2950,4.59957,2469.89,2019-7-22T13:35:39Z
2019-07-22T11:38:23Z,42.805,6.029,13.2953,4.59955,2469.9,2019-7-22T13:38:42Z
2019-07-22T11:41:26Z,42.805,6.029,13.2952,4.59956,2469.9,2019-7-22T13:41:45Z
2019-07-22T11:44:30Z,42.805,6.029,13.2953,4.59954,2469.923,2019-7-22T13:44:48Z
2019-07-22T11:47:33Z,42.805,6.029,13.2956,4.59954,2469.89,2019-7-22T13:47:52Z
2019-07-22T11:50:36Z,42.805,6.029,13.2953,4.59954,2469.876,2019-7-22T13:50:55Z
2019-07-22T11:53:39Z,42.805,6.029,13.2953,4.59956,2469.937,2019-7-22T13:53:58Z
2019-07-22T11:56:42Z,42.805,6.029,13.2958,4.59954,2469.9,2019-7-22T13:57:01Z
2019-07-22T11:59:46Z,42.805,6.029,13.2954,4.59956,2469.937,2019-7-22T14:00:04Z
2019-07-22T12:02:49Z,42.805,6.029,13.2955,4.59956,2469.937,2019-7-22T14:03:08Z
2019-07-22T12:05:52Z,42.805,6.029,13.2957,4.59957,2469.923,2019-7-22T14:06:11Z
2019-07-22T12:08:55Z,42.805,6.029,13.2955,4.59956,2469.914,2019-7-22T14:09:14Z
2019-07-22T12:11:58Z,42.805,6.029,13.2953,4.59954,2469.923,2019-7-22T14:12:17Z
2019-07-22T12:15:02Z,42.805,6.029,13.2950,4.59954,2469.9,2019-7-22T14:15:20Z
2019-07-22T12:18:05Z,42.805,6.029,13.2952,4.59955,2469.914,2019-7-22T14:18:24Z
2019-07-22T12:21:08Z,42.805,6.029,13.2953,4.59955,2469.923,2019-7-22T14:21:27Z
2019-07-22T12:24:11Z,42.805,6.029,13.2953,4.59956,2469.9,2019-7-22T14:24:30Z
2019-07-22T12:27:14Z,42.805,6.029,13.2956,4.59957,2469.923,2019-7-22T14:27:33Z
2019-07-22T12:30:18Z,42.805,6.029,13.2950,4.59955,2469.9,2019-7-22T14:30:36Z
2019-07-22T12:33:21Z,42.805,6.029,13.2952,4.59956,2469.876,2019-7-22T14:33:40Z
2019-07-22T12:36:24Z,42.805,6.029,13.2954,4.59954,2469.937,2019-7-22T14:36:43Z
2019-07-22T12:39:27Z,42.805,6.029,13.2956,4.59956,2469.937,2019-7-22T14:39:46Z
2019-07-22T12:42:30Z,42.805,6.029,13.2958,4.59957,2469.923,2019-7-22T14:42:49Z
2019-07-22T12:45:33Z,42.805,6.029,13.2956,4.59956,2469.89,2019-7-22T14:45:52Z
2019-07-22T12:48:37Z,42.805,6.029,13.2955,4.59956,2469.937,2019-7-22T14:48:56Z
2019-07-22T12:51:40Z,42.805,6.029,13.2953,4.59955,2469.9,2019-7-22T14:51:59Z
2019-07-22T12:54:43Z,42.805,6.029,13.2952,4.59957,2469.876,2019-7-22T14:55:02Z
2019-07-22T12:57:46Z,42.805,6.029,13.2955,4.59956,2469.876,2019-7-22T14:58:05Z
2019-07-22T13:00:49Z,42.805,6.029,13.2955,4.59955,2469.923,2019-7-22T15:01:08Z
2019-07-22T13:03:53Z,42.805,6.029,13.2953,4.59956,2469.853,2019-7-22T15:04:11Z
2019-07-22T13:06:56Z,42.805,6.029,13.2956,4.59956,2469.9,2019-7-22T15:07:15Z
2019-07-22T13:09:59Z,42.805,6.029,13.2955,4.59956,2469.89,2019-7-22T15:10:18Z
2019-07-22T13:13:02Z,42.805,6.029,13.2953,4.59956,2469.89,2019-7-22T15:13:21Z
2019-07-22T13:16:05Z,42.805,6.029,13.2952,4.59957,2469.89,2019-7-22T15:16:24Z
2019-07-22T13:19:09Z,42.805,6.029,13.2957,4.59955,2469.876,2019-7-22T15:19:28Z
2019-07-22T13:22:12Z,42.805,6.029,13.2956,4.59954,2469.89,2019-7-22T15:22:31Z
2019-07-22T13:25:15Z,42.805,6.029,13.2953,4.59954,2469.876,2019-7-22T15:25:34Z
2019-07-22T13:28:18Z,42.805,6.029,13.2957,4.59954,2469.876,2019-7-22T15:28:37Z
2019-07-22T13:31:21Z,42.805,6.029,13.2953,4.59954,2469.867,2019-7-22T15:31:40Z
2019-07-22T13:34:25Z,42.805,6.029,13.2953,4.59954,2469.89,2019-7-22T15:34:44Z
2019-07-22T13:37:28Z,42.805,6.029,13.2951,4.59952,2469.863,2019-7-22T15:37:47Z
2019-07-22T13:40:31Z,42.805,6.029,13.2953,4.59953,2469.876,2019-7-22T15:40:50Z
2019-07-22T13:43:34Z,42.805,6.029,13.2952,4.59954,2469.867,2019-7-22T15:43:53Z
2019-07-22T13:46:38Z,42.805,6.029,13.2956,4.59953,2469.867,2019-7-22T15:46:56Z
2019-07-22T13:49:41Z,42.805,6.029,13.2952,4.59954,2469.867,2019-7-22T15:50:00Z
2019-07-22T13:52:44Z,42.805,6.029,13.2953,4.59955,2469.876,2019-7-22T15:53:03Z
2019-07-22T13:55:47Z,42.805,6.029,13.2957,4.59954,2469.863,2019-7-22T15:56:06Z
2019-07-22T13:58:50Z,42.805,6.029,13.2954,4.59953,2469.839,2019-7-22T15:59:09Z
2019-07-22T14:01:54Z,42.805,6.029,13.2953,4.59954,2469.876,2019-7-22T16:02:13Z
2019-07-22T14:04:57Z,42.805,6.029,13.2953,4.59957,2469.876,2019-7-22T16:05:16Z
2019-07-22T14:08:00Z,42.805,6.029,13.2958,4.59954,2469.89,2019-7-22T16:08:19Z
2019-07-22T14:11:03Z,42.805,6.029,13.2953,4.59956,2469.89,2019-7-22T16:11:22Z
2019-07-22T14:14:06Z,42.805,6.029,13.2953,4.59955,2469.853,2019-7-22T16:14:25Z
2019-07-22T14:17:10Z,42.805,6.029,13.2955,4.59953,2469.853,2019-7-22T16:17:29Z
2019-07-22T14:20:13Z,42.805,6.029,13.2951,4.59956,2469.89,2019-7-22T16:20:32Z
2019-07-22T14:23:16Z,42.805,6.029,13.2953,4.59955,2469.853,2019-7-22T16:23:35Z
2019-07-22T14:26:19Z,42.805,6.029,13.2951,4.59953,2469.853,2019-7-22T16:26:38Z
2019-07-22T14:29:22Z,42.805,6.029,13.2958,4.59955,2469.853,2019-7-22T16:29:41Z
2019-07-22T14:32:26Z,42.805,6.029,13.2952,4.59956,2469.853,2019-7-22T16:32:44Z
2019-07-22T14:35:29Z,42.805,6.029,13.2953,4.59955,2469.844,2019-7-22T16:35:48Z
2019-07-22T14:38:32Z,42.805,6.029,13.2957,4.59954,2469.853,2019-7-22T16:38:51Z
2019-07-22T14:41:35Z,42.805,6.029,13.2952,4.59954,2469.867,2019-7-22T16:41:54Z
2019-07-22T14:44:38Z,42.805,6.029,13.2953,4.59954,2469.867,2019-7-22T16:44:57Z
2019-07-22T14:47:42Z,42.805,6.029,13.2955,4.59954,2469.83,2019-7-22T16:48:00Z
2019-07-22T14:50:45Z,42.805,6.029,13.2954,4.59957,2469.853,2019-7-22T16:51:04Z
2019-07-22T14:53:48Z,42.805,6.029,13.2958,4.59954,2469.867,2019-7-22T16:54:07Z
2019-07-22T14:56:51Z,42.805,6.029,13.2954,4.59954,2469.83,2019-7-22T16:57:10Z
2019-07-22T14:59:54Z,42.805,6.029,13.2954,4.59955,2469.853,2019-7-22T17:00:13Z
2019-07-22T15:02:57Z,42.805,6.029,13.2957,4.59953,2469.853,2019-7-22T17:03:16Z
2019-07-22T15:06:01Z,42.805,6.029,13.2954,4.59953,2469.867,2019-7-22T17:06:20Z
2019-07-22T15:09:04Z,42.805,6.029,13.2957,4.59956,2469.83,2019-7-22T17:09:23Z
2019-07-22T15:12:07Z,42.805,6.029,13.2957,4.59956,2469.83,2019-7-22T17:12:26Z
2019-07-22T15:15:10Z,42.805,6.029,13.2958,4.59956,2469.83,2019-7-22T17:15:29Z